Starlink 32628

operational
NORAD ID: 62122 Int'l Des: 2024-222 Owner: SPXS Country: US Constellation: starlink
LEOCIRCULAR

About Starlink 32628

Description loading...

Live Position

Loading 3D Globe...

Upcoming Passes

Altitude History

Altitude vs Time

uPlot chart will show altitude changes over time

Two-Line Element Set

1 62122U 24222J 25303.99027205 .00032628 00000-0 11896-2 0 9990
2 62122 42.9992 148.6101 0002298 276.6768 83.3823 15.27590151 53083
Epoch: Oct 30, 2025 • Age: 20 hours

Current Status

Altitude 482.7 km
Velocity 7.63 km/s
Sub-Earth Point 3.69°N, 10.66°W
Launch Date Nov 27, 2024
Age 0.9 years
Type internet

Technical Details

Classification Payload
Mass 730.00 kg
Dry Mass 700.00 kg
Total Mass 730.00 kg
Length 0.30 m
Diameter 4.10 m
Span 29.00 m
Shape Box + pan
Manufacturer SPXS
Bus Type Starlink V2M
Phase Status In Orbit
Owner/State SPXS/US

Large Constellations

Loading constellations...